{"data":{"norad_id":63150,"epoch":"2026-09-21T06:26:11.177952Z","epoch_age_seconds":95935,"freshness":"FRESH","line1":"1 63150U 25043U   26264.26818493  .00014531  00000+0  53611-3 0  9992","line2":"2 63150  43.0009 351.6965 0001454 263.6745  96.3941 15.27605411 87273","mean_motion":15.27605411,"eccentricity":0.0001454,"inclination_deg":43.0009,"raan_deg":351.6965,"arg_perigee_deg":263.6745,"mean_anomaly_deg":96.3941,"bstar":0.00053611,"rev_number":8727,"period_min":94.265180630471,"perigee_km":481.97540202378,"apogee_km":483.97061281394,"semimajor_km":6861.1100074189,"source":"CELESTRAK","updated_at":"2026-09-22T09:00:49.793600Z"}}